Location: Goettingen
(51.5300°N, 9.9433°E)
Time: 06:24:43
(UTC+01:00)

ISS - Pass Details

Date: 04 December 2021
Orbit: 417 x 422 km, 51.6° (Epoch: 04 December)

Event Time Altitude Azimuth Distance (km) Brightness Sun altitude
Rises 17:57:26 0° 284° (WNW) 2,379 1.1 -15.3°
Reaches altitude 10° 17:59:35 10° 278° (W) 1,512 0.1 -15.7°
Maximum altitude 18:02:51 45° 204° (SSW) 583 -2.8 -16.1°
Enters shadow 18:04:59 19° 138° (SE) 1,081 -1.9 -16.5°
